Notices

What's New in latest Release from April 7th, 2021:

- Updated Glossary, including Speed of Maximum Gust, and Total Hourly Precipitation

- Updated national and regional climate services offices contacts and prices information

- Addition of station inventory lists for 1981-2010, 1971-2000, and 1961-1990 Normals.

If you haven't already, please take our survey and provide feedback about our website: https://eccc.sondage-survey.ca/f/LanguageSelection.aspx?s=442ca660-fcf1-47c0-95a9-59707d6fd709

Hourly Data Report for March 19, 2021

MIRAMICHI RCS
NEW BRUNSWICK
Current Station Operator: ECCC - MSC

47°00'34.000" N
65°27'54.000" W
33.00 m
8100989
71744
ACQ

Download Data

Hourly Data (March 2021)
Hourly Data Report for March 19, 2021
TIME
LST
Temp Definition
°C
Dew Point Definition
°C
Rel Hum Definition
%
Precip. Amount Definition
mm

Wind Dir Definition
10's deg

Wind Spd Definition
km/h
Visibility Definition
km
Stn Press Definition
kPa
Hmdx Definition


Wind Chill Definition


Weather Definition


00:00 -2.9 -13.1 45 LegendMM 30 21   100.92   -9 LegendNANA
01:00 -5.2 -14.4 48 LegendMM 31 18   100.98   -11 LegendNANA
02:00 -6.9 -15.6 50 LegendMM 31 20   101.00   -14 LegendNANA
03:00 -7.8 -16.3 51 LegendMM 34 12   101.06   -13 LegendNANA
04:00 -9.1 -17.3 52 LegendMM 32 13   101.08   -15 LegendNANA
05:00 -10.0 -18.3 51 LegendMM 33 17   101.17   -17 LegendNANA
06:00 -11.0 -18.3 55 LegendMM 32 13   101.24   -17 LegendNANA
07:00 -11.5 -18.6 56 LegendMM 32 13   101.30   -18 LegendNANA
08:00 -11.2 -18.9 53 LegendMM 32 14   101.37   -18 LegendNANA
09:00 -10.5 -19.8 46 LegendMM 33 18   101.35   -18 LegendNANA
10:00 -9.1 -19.8 42 LegendMM 32 18   101.32   -16 LegendNANA
11:00 -8.0 -19.8 38 LegendMM 32 19   101.29   -15 LegendNANA
12:00 -6.2 -19.0 36 LegendMM 33 15   101.28   -12 LegendNANA
13:00 -5.2 -18.5 34 LegendMM 33 19   101.23   -12 LegendNANA
14:00 -4.5 -19.0 31 LegendMM 32 22   101.21   -11 LegendNANA
15:00 -3.7 -18.9 30 LegendMM 31 21   101.21   -10 LegendNANA
16:00 -2.9 -18.3 29 LegendMM 31 18   101.19   -9 LegendNANA
17:00 -3.5 -17.4 33 LegendMM 30 21   101.25   -10 LegendNANA
18:00 -4.5 -18.9 31 LegendMM 30 18   101.38   -11 LegendNANA
19:00 -5.4 -20.1 31 LegendMM 32 10   101.51   -10 LegendNANA
20:00 -6.4 -18.9 36 LegendMM 31 7   101.60   -10 LegendNANA
21:00 -7.1 -17.9 42 LegendMM 30 9   101.67   -11 LegendNANA
22:00 -7.6 -18.1 43 LegendMM 27 10   101.69   -12 LegendNANA
23:00 -9.1 -18.0 49 LegendMM 26 7   101.72   -13 LegendNANA

Notes on Data Quality.

Legend

  • E = Estimated
  • M = Missing
  • NA = Not Available*
  • [empty] = Indicates an unobserved value
Date modified: